Regional Weather Roundup
Issued by NWS

Home | Current Version | Previous Version | Graphics & Text | Print | Product List | Glossary Off
Versions: 1 2 3 4 5 6 7 8 9 10 11 12 13 14 15 16 17 18 19 20 21 22 23 24 25 26 27 28 29 30 31 32 33 34 35 36 37 38 39 40 41 42 43 44 45 46 47 48 49 50

000
ASUS43 KMKX 240020
RWRWI

WISCONSIN REGIONAL WEATHER ROUNDUP
NATIONAL WEATHER SERVICE MILWAUKEE/SULLIVAN WI
700 PM CDT WED JUL 23 2014

NOTE: "FAIR" INDICATES FEW OR NO CLOUDS BELOW 12,000 FEET WITH NO
SIGNIFICANT WEATHER AND/OR OBSTRUCTIONS TO VISIBILITY.

WIZ001-002-006>008-014>016-023>028-240100-
NORTHWEST WISCONSIN

CITY           SKY/WX    TMP DP  RH WIND       PRES   REMARKS
SUPERIOR ARPT  SUNNY     68  56  66 NE7       30.19S
6HR MIN TEMP:  67; 6HR MAX TEMP:  76;

ASHLAND        SUNNY     72  54  53 NE3       30.21S
6HR MIN TEMP:  71; 6HR MAX TEMP:  74;

HAYWARD        MOSUNNY   74  52  46 NE7       30.20F
6HR MIN TEMP:  73; 6HR MAX TEMP:  77;

SIREN          MOSUNNY   76  53  45 NE5       30.19S
6HR MIN TEMP:  75; 6HR MAX TEMP:  79;

RICE LAKE      SUNNY     76  51  41 N7        30.20S
6HR MIN TEMP:  74; 6HR MAX TEMP:  78;

LADYSMITH      SUNNY     74  55  52 N10       30.20S
6HR MIN TEMP:  72; 6HR MAX TEMP:  77;

EAU CLAIRE     SUNNY     78  54  43 NE9       30.15F
6HR MIN TEMP:  77; 6HR MAX TEMP:  82;

MENOMONIE      CLEAR     78  53  41 N8        30.17S
6HR MIN TEMP:  76; 6HR MAX TEMP:  80;

NEW RICHMOND   SUNNY     76  54  47 N6        30.18F
6HR MIN TEMP:  74; 6HR MAX TEMP:  79;

OSCEOLA        SUNNY     76  55  47 N5        30.20S
6HR MIN TEMP:  74; 6HR MAX TEMP:  79;

$$

WIZ003>005-009-010-017-018-240100-
NORTH CENTRAL WISCONSIN

CITY           SKY/WX    TMP DP  RH WIND       PRES   REMARKS
WOODRUFF       SUNNY     72  54  52 NE5       30.20F
6HR MIN TEMP:  72; 6HR MAX TEMP:  77;

RHINELANDER    SUNNY     69  52  54 N5        30.20S
6HR MIN TEMP:  66; 6HR MAX TEMP:  73;

EAGLE RIVER    SUNNY     68  49  49 N5        30.20S
6HR MIN TEMP:  66; 6HR MAX TEMP:  72;

LAND O LAKES   SUNNY     68  49  50 N5        30.22S
6HR MIN TEMP:  66; 6HR MAX TEMP:  72;

PHILLIPS       SUNNY     70  51  50 N7        30.20S
6HR MIN TEMP:  69; 6HR MAX TEMP:  74;

TOMAHAWK       SUNNY     70  52  53 CALM      30.19F
6HR MIN TEMP:  68; 6HR MAX TEMP:  73;

MEDFORD        MOSUNNY   72  52  50 N8        30.18S
6HR MIN TEMP:  70; 6HR MAX TEMP:  75;

MERRILL        SUNNY     71  54  54 NE8       30.18S
6HR MIN TEMP:  70; 6HR MAX TEMP:  75;

$$

WIZ029-030-035-036-043>047-240100-
CENTRAL WISCONSIN

CITY           SKY/WX    TMP DP  RH WIND       PRES   REMARKS
WAUSAU         SUNNY     73  52  47 VRB6      30.15F
MOSINEE        PTSUNNY   73  54  49 N7        30.18F
MARSHFIELD     MOSUNNY   75  54  47 N9        30.16F
6HR MIN TEMP:  73; 6HR MAX TEMP:  78;

STEVENS POINT  MOSUNNY   73  51  46 N7        30.16F
6HR MIN TEMP:  71; 6HR MAX TEMP:  75;

WAUPACA        SUNNY     76  49  38 E6        30.16S
6HR MIN TEMP:  76; 6HR MAX TEMP:  80;

WAUTOMA        MOSUNNY   76  52  43 NE5       30.15F
6HR MIN TEMP:  76; 6HR MAX TEMP:  79;

WISC RAPIDS    MOSUNNY   76  53  44 N8        30.16F
6HR MIN TEMP:  75; 6HR MAX TEMP:  80;

CAMP DOUGLAS   MOSUNNY   77  59  53 N7        30.14F
$$

WIZ011>013-019>022-031-037>040-048>050-240100-
NORTHEAST WISCONSIN

CITY           SKY/WX    TMP DP  RH WIND       PRES   REMARKS
ANTIGO         SUNNY     68  55  61 NE5       30.19S
6HR MIN TEMP:  68; 6HR MAX TEMP:  72;

STURGEON BAY   SUNNY     68  48  49 E8        30.17S
6HR MIN TEMP:  68; 6HR MAX TEMP:  72;

GREEN BAY      SUNNY     70  51  51 NE9       30.16S
6HR MIN TEMP:  70; 6HR MAX TEMP:  75;

MANITOWOC      MOSUNNY   66  50  56 E7        30.17S
6HR MIN TEMP:  65; 6HR MAX TEMP:  68;

APPLETON       MOSUNNY   72  48  43 NE10      30.16S
CLINTONVILLE   SUNNY     72  48  43 NE3       30.15F
OSHKOSH        SUNNY     72  52  49 NE8       30.15S
6HR MIN TEMP:  72; 6HR MAX TEMP:  76;

$$

WIZ032>034-041-042-053>061-240100-
SOUTHWEST WISCONSIN

CITY           SKY/WX    TMP DP  RH WIND       PRES   REMARKS
LA CROSSE      MOSUNNY   80  56  43 NW9       30.14F HX  80
6HR MIN TEMP:  78; 6HR MAX TEMP:  84;

SPARTA         MOSUNNY   76  54  46 NW3       30.15F
6HR MIN TEMP:  75; 6HR MAX TEMP:  82;

VIROQUA        FAIR      74  59  58 NW3       30.17S
6HR MIN TEMP:  72; 6HR MAX TEMP:  78;

BOSCOBEL       MOSUNNY   79  56  45 NE5       30.13F HX  80
6HR MIN TEMP:  78; 6HR MAX TEMP:  84;

PRAIRIE DU CHI SUNNY     78  51  38 N8        30.13F
6HR MIN TEMP:  76; 6HR MAX TEMP:  80;

PLATTEVILLE    FAIR      76  55  48 N10       30.16S
6HR MIN TEMP:  74; 6HR MAX TEMP:  79;

$$

WIZ056-057-062-063-064-067-068-240100-
SOUTH CENTRAL WISCONSIN

CITY           SKY/WX    TMP DP  RH WIND       PRES   REMARKS
BARABOO/DELLS  MOSUNNY   73  53  48 NE5       30.14F
6HR MIN TEMP:  73; 6HR MAX TEMP:  81;

LONE ROCK      CLOUDY    82  57  42 N5        30.13F HX  82
6HR MIN TEMP:  80; 6HR MAX TEMP:  84;

WATERTOWN      SUNNY     71  58  63 E9        30.14S
6HR MIN TEMP:  71; 6HR MAX TEMP:  76;

MADISON        PTSUNNY   75  55  49 NE8       30.14S
6HR MIN TEMP:  74; 6HR MAX TEMP:  80;

MIDDLETON      FAIR      75  53  45 NE9       30.14S
6HR MIN TEMP:  74; 6HR MAX TEMP:  80;

MONROE         SUNNY     73  55  53 NE7       30.14S
JANESVILLE     MOSUNNY   75  50  41 N12       30.13S
$$

WIZ051-052-058>065-066-070>072-240100-
SOUTHEAST WISCONSIN

CITY           SKY/WX    TMP DP  RH WIND       PRES   REMARKS
MILWAUKEE      MOSUNNY   63  52  67 NE10      30.17S
6HR MIN TEMP:  63; 6HR MAX TEMP:  69;

WAUKESHA       PTSUNNY   64  48  55 E12       30.18S
MILWAUKEE/TIMM SUNNY     64  46  52 N13G20    30.18S
RACINE         SUNNY     63  54  72 N9        30.18S
6HR MIN TEMP:  62; 6HR MAX TEMP:  68;

BURLINGTON     SUNNY     64  52  64 E10       30.17S
6HR MIN TEMP:  64; 6HR MAX TEMP:  73;

KENOSHA        SUNNY     64  51  62 NE12G20   30.16F
6HR MIN TEMP:  64; 6HR MAX TEMP:  73;

FOND DU LAC    MOSUNNY   70  54  56 E7        30.16S
6HR MIN TEMP:  70; 6HR MAX TEMP:  76;

SHEBOYGAN      MOSUNNY   65  50  58 NE9       30.17S
6HR MIN TEMP:  63; 6HR MAX TEMP:  67;

WEST BEND      MOSUNNY   64  48  55 E6        30.17S
JUNEAU         SUNNY     70  51  51 E9        30.16S
6HR MIN TEMP:  70; 6HR MAX TEMP:  74;

$$

LSZ147-162-240100-
LAKE SUPERIOR

STATION/POSITION TIME  TEMP    WIND        PRES    WAVE
                       AIR SEA DIR/SP/G            HT/PER
                 (UTC) (F)     (DEG/KT/KT) (MB)    (FT/S)
$$

LMZ867-665-643>646-240100-
LAKE MICHIGAN

STATION/POSITION TIME  TEMP    WIND        PRES    WAVE
                       AIR SEA DIR/SP/G            HT/PER
                 (UTC) (F)     (DEG/KT/KT) (MB)    (FT/S)
$$

TC  - TEMPERATURE IN CELSIUS
VSB - VISIBILITY IN STATUTE MILES
WCI - WIND CHILL INDEX
HX  - HEAT INDEX




USA.gov is the U.S. government's official web portal to all federal, state and local government web resources and services.